User: anonymous   Login
Location: Codford Saint Peter
(51.1597°N, 2.0531°W)
Time: 06:16:54
(UTC+00:00)
Language:

Cosmos 1300 Rocket - Orbit

View from above orbital plane
View from above orbital plane
View from above satellite
View from above satellite

Ground track
Ground track

The orbit data is extracted from the following two-line orbital elements,

1 12786U 81082B   20339.38019303  .00000118  00000-0  11000-4 0  9993
2 12786  82.4900 214.2348 0018496  38.7864 321.4675 14.84807776122697
Epoch (UTC): 04 December 2020 09:07:28
Eccentricity: 0.0018496
inclination: 82.4900°
perigee height: 601 km
apogee height: 627 km
right ascension of ascending node: 214.2348°
argument of perigee: 38.7864°
revolutions per day: 14.84807776
mean anomaly at epoch: 321.4675°
orbit number at epoch: 12269

The dashed part of the orbit path shows where the satellite is in the earth's shadow,  

DLR